FENGYUN 1C DEB

Satellite information

Favourite Embed

Satellite Type and Status

DEBRISIN ORBIT

Key statistics

Satellite FENGYUN 1C DEB at a glance.

Uptime

9610

Days in orbit

Revolutions

≈ 14.5

Per day

Orbit

SSO

Sun Synchronous Orbit

Inclination

99.0

Latest

Satellite identification and parameters

Extended collection of information and parameters for FENGYUN 1C DEB.

Object identification

Identified? True

Debris? True

Object name: FENGYUN 1C DEB

International designator: 1999-025BAL

Object number (NORAD): 30946

Object ID (CCSDS): 30946

Country: PEOPLES REPUBLIC OF CHINA (PRC)

Current information (Y/N): Y

RCS size: SMALL

Orbital parameters

Period: 99.49 minutes

Inclination: 99.0322 deg

SMA: 7112.372 km

Apoapsis: 799.087 km

Periapsis: 669.387 km

RAAN: 349.265 deg

Eccentricy: 0.0091179

Argument of periapsis: 147.9179 deg

Mean anomaly: 268.1368 deg

Mean motion: 14.4737496 rev/day

Mean motion (dot): 0.00003618 rev/day2

B* drag term: 0.00095040697 1/REarth

Two-line elements (TLE)

Creation date: Aug. 29, 2025, 9:54 a.m.

Reference frame: TEME

Reference center: EARTH

Epoch: Aug. 29, 2025, 6:18 a.m. UTC

TLE line 0: 0 FENGYUN 1C DEB

TLE line 1: 1 30946U 99025BAL 25241.26288118 .00003618 00000-0 95041-3 0 9997

TLE line 2: 2 30946 99.0322 349.2650 0091179 147.9179 268.1368 14.47374960968252

Live tracking on map

Real-time ground track for satellite FENGYUN 1C DEB.

In-orbit conjunctions

A list of the most updated potential collisions computed for object FENGYUN 1C DEB.

Target Orbit TCA Probability of collision Miss distance Type
PICOSAT 5 SSO 2025-09-01 15:47:13 0.0002025309 717.0 (m) PAYLOAD
SL-3 R/B LEO 2025-03-10 10:30:10 0.0003765799 124.0 (m) ROCKET BODY
CZ-6A DEB LEO 2025-02-15 18:51:22 0.000173516 310.0 (m) DEBRIS
SAFIR 2 SSO 2024-11-15 11:57:31 0.0001200573 617.0 (m) PAYLOAD
TANSEI 3 DEB HEO 2024-11-09 16:30:38 0.0001130324 750.0 (m) DEBRIS

Associated space launch

Chinese polar orbiting meteorological satellite

FENGYUN 1C DEB was lifted into orbit during the mission ‘Long March 4B | Feng Yun 1C’, on board a Long March 4B space rocket.

The launch took place on May 10, 1999, 1:33 a.m. from Launch Complex 7.

For more information about the launch, click the button.

Launch to space Long March 4B | Feng Yun 1C
Long March 4B | Feng Yun 1C

Agency: N/A

Status: Launch Successful

Launch date: May 10, 1999, 1:33 a.m. UTC

Rocket: Long March 4B

Launch pad: Launch Complex 7

Location: Taiyuan Satellite Launch Center, People's Republic of China

...

Latest news about this satellite

There are no fresh news available about this satellite. Check back as we update our databases every day.


Newsletter sign-up

Weekly statistics, charts and insights to help you stay on top of the space industry.